Powrót do katalogu

STARLINK-31190

AktywnyŁącznośćVLEO
NORAD 58897·PAYLOAD·🇺🇸 United States

Wystrzelony Jan 29, 2024 z Vandenberg Space Force Base

Loading…

Następne Przeloty (najbliższe 24 godziny)

TLE

ŚwieżeSource: CelesTrak SupGP

Epoka: Sep 15, 2026, 02:11 UTC

1 58897C 24020X   26258.09145833 -.00006238  00000+0 -20057-3 0  2586
2 58897  53.1586 161.3627 0001348  79.4036  70.5550 15.31706658    13

Śledź STARLINK-31190 w czasie rzeczywistym z AllMySat

Download on the App Store